Wind_Speed
76 74 74 74 73 75 75 74 74 75 75 75 75 75 72 72 74 77 80 82 82 82 82 82 82 84 85 85 84 84 81 79 74 69 63 57 56 56 56 57 57 56 55 54 52 48 45 44 43 41 39 38 38 37 36 36 34 28 22 17 15 15 17 20 22 24 24 25 26 27 27 26 25 24 21 18 17 17 16 17 16 15 14 13 12
79 79 79 77 77 78 78 78 78 79 78 78 77 77 76 76 77 78 81 81 82 81 81 82 82 84 85 82 81 80 78 77 73 70 64 58 57 56 56 57 57 56 55 54 51 48 44 44 43 41 40 38 38 37 37 35 31 25 20 16 15 16 18 21 23 25 25 26 27 27 27 25 24 24 22 19 17 18 17 17 16 16 15 14 13
83 83 82 82 82 81 80 81 81 82 81 80 80 80 80 79 78 79 80 80 79 80 81 82 82 83 81 79 78 77 76 74 73 71 66 59 57 56 57 57 57 57 56 54 51 47 44 43 42 41 40 39 37 36 35 33 28 23 18 15 16 17 19 22 25 26 26 27 27 27 27 25 24 23 22 19 17 17 17 17 17 16 16 15 13
86 86 85 85 85 83 83 83 83 83 82 81 83 81 79 80 81 81 80 79 79 81 81 81 81 79 77 77 77 76 74 72 70 69 64 59 56 55 57 57 57 57 56 54 50 46 43 43 42 40 40 38 36 34 33 30 25 20 16 15 17 19 21 24 26 27 27 27 27 27 26 24 23 22 21 18 17 16 16 16 16 17 16 15 14
88 89 88 87 87 86 85 84 84 84 84 85 85 81 80 82 83 82 80 79 80 80 79 79 79 77 77 77 76 75 73 70 68 65 61 58 56 55 57 58 57 57 56 53 49 46 43 42 41 40 39 37 35 33 30 27 22 20 16 15 18 21 23 25 26 26 27 27 27 26 25 24 21 21 20 18 17 16 15 15 15 16 16 15 15
90 91 90 91 91 89 87 86 86 87 88 88 86 84 84 84 84 82 80 80 79 77 75 77 78 77 77 76 75 74 71 68 65 62 59 56 55 55 57 58 57 56 54 51 47 44 42 41 40 39 39 36 35 32 28 24 21 21 18 16 20 23 25 26 25 24 25 27 27 26 24 23 20 19 19 19 17 16 15 14 14 15 15 16 16
91 93 93 94 94 92 91 89 89 90 89 88 87 88 87 86 85 83 82 80 79 76 73 75 76 76 76 75 74 72 69 66 63 60 56 53 53 55 56 57 56 54 52 48 45 42 41 40 39 39 39 36 33 30 26 22 20 20 19 19 21 24 25 26 24 22 23 25 26 25 24 22 20 19 18 19 18 17 16 15 14 14 15 16 17
93 94 95 95 95 94 93 92 92 92 91 90 90 89 88 87 86 85 83 82 80 77 74 74 75 75 75 74 72 69 67 65 62 58 54 51 53 55 56 55 53 51 48 45 42 41 40 39 39 39 37 35 30 27 24 20 20 20 20 21 22 25 27 26 24 22 22 23 24 25 23 22 21 20 19 19 19 17 16 16 15 15 15 16 17
95 96 96 96 97 96 95 95 94 93 92 92 91 90 89 88 87 87 85 83 81 79 77 75 75 74 72 70 68 67 65 62 60 56 52 51 53 54 54 53 50 47 44 42 40 39 39 39 39 37 34 32 27 24 23 20 22 23 23 23 25 27 28 27 25 21 21 21 22 23 23 22 22 21 20 19 19 18 17 17 16 16 16 16 17
97 97 97 98 98 98 97 96 95 94 93 92 92 91 90 89 88 87 85 83 81 79 77 76 74 71 68 66 65 63 62 60 58 54 52 52 53 53 52 50 46 43 41 41 39 39 39 38 37 34 31 28 25 22 21 23 26 27 25 25 26 28 29 28 25 21 21 19 19 22 22 22 22 21 21 20 20 20 19 17 17 16 16 17 17
99 99 99 99 98 98 97 96 95 94 93 93 93 91 90 89 88 87 85 82 79 78 76 74 72 69 66 64 63 61 59 57 56 54 53 53 52 51 49 46 43 40 40 40 39 38 38 36 34 31 28 25 23 22 21 26 30 29 26 24 23 26 28 28 24 22 23 22 20 21 23 22 21 21 20 20 20 20 20 18 17 17 17 17 17
101 101 100 99 99 98 97 96 95 94 93 93 92 91 90 89 87 85 83 81 78 77 74 72 70 66 64 62 61 59 57 57 57 55 54 52 50 48 46 43 40 38 39 38 37 36 35 33 31 28 25 23 22 21 24 29 30 28 27 26 23 24 27 26 22 22 25 26 23 21 21 22 21 21 20 19 19 20 20 19 18 17 17 17 17
101 101 100 99 98 96 95 94 93 92 91 91 91 90 89 87 85 83 81 79 77 74 72 70 67 63 61 60 58 56 56 57 56 54 52 49 47 45 42 39 38 37 38 36 35 33 32 31 28 26 24 22 21 21 27 30 30 29 27 27 26 26 28 27 23 24 28 29 26 22 21 22 22 21 20 19 19 20 21 20 18 17 17 17 17
99 98 98 96 95 93 91 90 89 89 89 89 87 86 86 84 82 80 78 76 74 72 69 67 64 60 58 58 55 55 56 56 53 50 48 46 44 41 38 37 36 36 35 34 31 30 29 27 26 24 23 21 20 22 30 30 27 29 29 27 28 30 31 28 23 24 28 28 27 25 23 22 22 22 21 20 20 20 21 20 19 18 18 18 18
96 95 94 93 91 90 88 87 86 86 86 86 85 83 83 81 80 77 75 73 71 69 66 64 61 58 56 55 54 54 54 52 49 47 44 42 39 36 35 35 34 33 31 29 27 26 25 25 25 24 22 21 20 22 31 31 25 28 30 28 28 31 32 28 23 22 26 26 25 26 25 25 24 23 23 21 20 20 21 21 20 19 20 20 20
93 92 91 90 89 88 86 85 84 84 84 83 82 81 80 79 76 74 72 70 68 67 64 61 58 55 54 53 52 51 50 48 46 44 41 38 34 33 34 33 30 28 26 24 23 23 23 23 24 23 22 21 20 21 32 35 27 28 29 29 30 32 33 30 25 24 29 29 26 26 26 26 26 24 22 21 19 19 20 21 21 20 21 21 20
90 90 89 88 87 86 86 84 83 82 82 81 80 78 77 75 73 71 69 67 66 64 61 58 55 53 52 51 49 47 46 45 44 42 39 36 33 32 31 28 26 24 22 21 21 22 23 23 23 22 22 21 20 21 32 39 31 30 29 29 31 32 34 33 28 25 29 30 28 28 28 28 27 23 21 20 19 19 19 19 20 21 21 21 20
89 88 88 87 86 85 84 83 82 81 80 79 77 75 73 72 70 68 66 65 64 62 59 55 53 51 50 49 48 46 45 44 42 40 36 32 29 28 26 25 24 22 20 19 20 21 22 22 22 21 21 20 20 21 32 40 33 31 30 29 32 33 34 33 29 26 26 28 27 29 30 30 28 25 21 20 19 18 17 17 18 19 19 19 20
88 88 87 86 85 84 83 82 81 79 78 76 74 72 70 68 67 65 64 62 61 60 57 53 51 50 49 48 46 45 43 42 40 35 30 26 25 26 25 24 23 21 19 18 19 20 21 21 21 20 19 19 20 22 32 39 33 32 31 30 33 33 32 31 29 26 26 27 26 27 29 30 28 26 24 21 20 18 16 16 16 17 16 16 17
88 87 86 85 83 83 82 81 79 78 76 74 71 68 66 65 64 63 62 60 59 58 54 51 50 50 48 46 45 43 42 40 36 30 25 25 27 27 26 24 21 20 19 18 18 20 21 22 21 20 18 18 19 22 32 39 33 31 30 30 32 33 33 32 30 27 26 27 28 27 27 27 27 26 25 24 21 19 18 17 17 17 15 15 14
86 85 84 83 82 81 80 79 78 76 74 72 69 66 64 63 62 61 60 58 57 55 52 50 49 48 47 45 44 43 41 38 34 30 29 31 32 31 28 23 20 19 19 19 21 22 23 23 22 21 18 18 18 21 31 38 35 32 30 29 30 33 35 35 33 29 26 27 29 29 28 27 26 25 25 24 23 20 18 17 17 17 16 16 15
85 84 83 82 80 79 78 78 77 75 73 71 68 65 63 62 61 60 58 57 54 52 51 50 48 47 47 46 45 43 40 36 32 31 33 35 35 31 26 21 19 20 21 23 25 26 26 25 24 22 19 18 18 22 31 38 38 35 34 30 26 30 35 36 37 32 25 25 30 31 30 28 26 25 24 24 24 21 18 16 15 16 16 16 15
83 82 81 80 79 78 77 76 75 74 72 70 67 65 62 61 60 59 58 56 54 53 52 50 48 46 45 45 45 44 40 36 31 26 28 31 30 28 25 22 22 24 26 27 28 28 28 27 26 24 21 18 17 21 31 38 39 39 38 32 26 27 32 36 39 36 26 21 28 34 33 30 28 26 24 24 24 22 20 18 16 14 13 12 12
80 80 79 78 77 76 75 74 73 72 70 68 66 63 61 60 59 58 57 56 54 54 53 51 49 46 45 44 43 42 39 35 29 25 26 27 28 27 27 26 27 28 29 28 28 29 29 28 27 25 22 19 18 21 31 39 41 41 41 35 28 26 29 35 38 39 32 21 22 31 34 33 31 28 25 24 24 23 22 22 20 16 14 13 12
78 77 76 75 75 74 74 73 71 70 67 65 64 61 59 58 57 57 56 55 54 54 54 53 50 47 44 40 38 40 39 35 32 31 31 31 31 28 26 28 28 28 29 29 29 30 29 28 27 26 23 20 19 21 30 40 43 42 43 38 29 25 27 33 36 39 39 30 23 23 27 30 32 30 27 26 24 22 22 22 21 19 18 16 15
75 75 74 73 73 72 72 71 69 67 65 63 61 59 57 56 55 55 54 53 54 55 55 55 52 48 44 39 38 39 39 38 36 35 36 36 32 27 28 31 29 28 30 31 30 29 28 27 26 25 23 21 20 21 28 39 44 43 44 41 33 27 28 32 35 38 40 38 31 25 21 24 30 33 30 27 25 23 22 21 19 19 19 17 16
73 73 72 71 70 70 69 68 67 65 62 60 58 57 56 54 53 52 52 52 53 55 56 56 54 51 48 45 45 44 39 38 36 34 38 38 32 29 31 32 30 31 31 31 31 29 29 28 26 25 23 22 21 22 26 36 44 44 44 44 38 33 31 32 34 38 39 39 37 32 24 21 26 32 31 27 26 24 22 21 20 19 18 16 16
71 71 70 69 67 67 66 64 63 62 60 58 56 55 54 52 51 51 51 51 51 53 54 55 55 54 51 48 46 43 36 36 36 33 35 36 33 32 34 33 30 30 29 31 32 29 29 29 27 25 23 23 23 23 25 32 42 46 46 45 42 37 34 33 33 36 37 38 37 35 29 22 22 27 30 29 27 25 23 23 22 20 18 17 15
68 68 67 66 64 63 62 61 59 58 56 55 53 52 51 50 50 50 50 49 50 51 52 52 54 54 52 46 42 38 32 32 32 30 30 30 32 32 29 29 27 27 29 31 31 29 30 31 28 26 24 23 23 24 26 30 38 45 48 47 44 41 36 34 33 34 35 36 37 36 32 26 23 25 29 33 31 26 25 26 24 21 19 17 15
65 65 64 62 61 60 58 57 55 54 53 51 50 49 48 48 48 48 48 48 49 50 50 51 53 52 50 45 41 37 34 34 30 28 30 29 32 32 25 24 23 22 26 28 29 30 32 31 27 26 25 24 24 25 26 29 34 42 49 49 45 42 39 36 34 35 34 35 38 38 36 32 27 24 26 33 36 32 29 27 24 22 20 18 17
62 61 60 58 57 56 54 53 51 50 49 48 47 46 45 46 46 46 46 46 47 48 49 50 52 53 51 47 43 40 37 37 30 26 29 28 29 32 25 22 19 17 22 27 29 29 29 27 26 25 24 23 24 25 26 29 33 38 45 50 48 42 41 40 38 36 34 35 38 38 39 36 31 25 22 27 34 35 32 28 24 23 22 20 19
57 57 55 54 53 52 51 49 47 46 45 44 43 43 43 44 44 44 44 44 45 46 46 47 49 52 55 54 51 44 38 39 34 25 27 27 27 28 24 20 16 16 25 32 31 29 24 22 23 24 23 22 24 26 27 29 32 36 41 48 49 43 40 42 42 39 36 35 36 37 39 38 34 28 21 19 24 27 28 27 27 27 27 26 24
53 52 51 50 50 48 47 45 44 43 42 41 41 41 41 42 42 43 42 42 43 43 43 44 45 48 51 54 55 49 39 41 42 33 30 29 26 25 22 19 17 21 30 35 33 28 23 21 22 22 21 22 24 26 28 30 32 34 38 44 48 44 40 41 43 43 41 38 36 35 37 38 36 32 24 18 17 18 19 21 24 24 24 25 26
49 49 48 47 46 45 44 42 40 40 40 39 40 40 39 40 41 42 41 40 41 42 42 42 43 44 46 48 52 50 42 41 46 43 39 35 30 27 23 21 21 23 28 33 35 30 23 22 22 21 19 20 23 26 27 30 32 33 36 40 45 46 41 40 43 44 45 44 40 36 35 35 35 34 31 25 21 20 19 19 20 19 18 18 19
46 46 45 45 44 43 41 39 38 38 38 38 38 38 38 39 40 40 40 40 40 41 41 41 42 42 43 43 46 48 44 41 45 46 44 40 37 36 32 28 25 23 27 33 38 34 26 21 19 17 17 19 22 25 26 29 32 33 35 37 42 47 44 40 42 44 45 46 44 40 37 35 35 35 34 32 29 27 26 24 24 24 23 20 18
44 44 43 43 41 40 39 38 37 36 36 36 36 36 37 38 38 39 39 39 40 41 41 41 41 41 41 41 42 43 44 41 41 44 44 41 42 42 40 37 32 30 33 37 39 34 27 24 21 17 18 19 21 24 25 28 32 34 35 36 39 45 45 42 41 43 44 45 45 43 39 36 36 36 36 35 34 32 31 30 30 30 29 26 23
43 43 42 41 40 38 37 36 35 35 34 34 34 35 36 37 37 38 38 39 40 41 41 41 41 41 39 40 40 40 43 42 39 40 41 42 44 46 45 41 37 36 37 39 38 33 27 27 25 21 20 19 22 24 25 27 30 33 35 36 37 41 45 44 42 42 41 42 43 42 39 37 37 38 38 38 37 36 35 34 33 33 33 31 27
42 42 41 40 38 37 36 35 34 34 33 33 33 34 35 36 37 37 38 39 39 40 41 40 40 40 40 40 40 40 43 43 40 39 40 43 46 48 48 43 40 40 40 41 39 33 29 28 28 25 23 21 23 25 25 26 29 32 35 36 36 38 43 45 44 43 41 41 41 41 40 38 37 38 40 41 40 39 38 36 34 34 34 33 30
41 40 40 39 38 36 36 35 34 34 33 32 32 33 35 36 36 37 37 38 39 40 40 40 39 40 40 41 41 41 43 44 42 41 41 44 47 49 51 47 44 44 44 44 40 34 32 30 29 27 25 22 22 23 24 26 27 30 34 36 37 37 40 44 46 45 43 42 42 42 43 41 39 38 38 40 41 41 40 38 36 35 34 33 32
39 39 40 39 37 36 36 35 34 34 33 32 32 33 35 36 36 36 37 38 39 39 39 40 39 39 40 41 42 43 45 46 45 45 46 47 48 49 50 50 50 49 48 48 44 40 38 35 32 30 27 24 23 22 22 24 26 29 32 35 37 38 39 41 44 44 44 45 45 44 44 44 42 40 38 38 38 39 39 38 36 35 33 33 32
39 39 40 38 38 37 36 35 34 34 34 33 32 33 35 36 37 37 37 38 40 40 39 39 39 39 40 40 42 44 48 49 49 50 51 51 51 50 49 49 50 50 50 50 47 45 44 40 36 34 33 30 26 24 22 22 25 28 31 33 36 38 39 40 41 42 43 45 47 48 47 46 46 46 43 41 39 39 39 38 37 36 35 34 33
39 40 40 39 38 37 37 36 35 35 35 34 33 33 34 36 37 38 38 39 40 41 41 40 39 39 40 40 41 43 47 51 53 54 54 55 56 54 51 50 51 50 50 49 45 45 46 43 40 38 37 35 31 28 25 24 26 28 29 29 32 36 38 40 41 42 42 44 47 48 48 48 49 50 49 47 46 45 45 44 42 41 40 39 38
39 41 40 39 39 38 38 38 37 36 35 36 35 34 35 36 38 38 39 40 40 41 42 41 40 40 40 41 41 43 45 48 53 58 58 57 58 59 57 54 52 52 52 50 46 44 45 44 41 39 39 37 34 31 29 26 26 27 27 27 28 31 34 38 41 42 43 44 45 47 47 49 51 52 52 50 51 51 50 49 48 46 44 43 41
40 42 41 40 40 39 39 39 39 38 37 37 36 36 36 37 38 39 40 41 42 42 42 43 42 42 42 42 42 43 44 45 49 56 61 60 58 60 60 57 55 53 52 52 50 47 45 44 42 40 41 38 36 35 33 30 28 27 28 27 26 26 29 33 37 40 42 43 45 45 46 47 49 51 51 50 51 51 51 50 49 48 46 44 42
41 42 42 41 41 41 40 40 40 39 38 38 38 38 38 38 39 40 41 42 43 44 44 44 44 44 43 43 44 44 44 45 47 51 58 61 60 59 59 58 56 52 50 51 52 51 48 46 44 42 42 40 38 37 36 35 32 30 29 27 25 25 27 29 31 34 37 40 44 44 44 44 45 47 47 46 47 48 48 46 45 44 44 42 39
42 42 43 42 42 42 41 41 41 41 40 39 39 39 40 41 41 41 42 43 44 45 45 46 46 46 46 45 45 45 45 46 47 49 52 58 61 60 60 58 56 53 50 49 50 52 52 50 47 44 44 43 42 40 40 40 37 34 31 29 28 27 27 28 29 30 32 35 39 41 41 42 42 43 42 42 43 43 42 41 40 40 40 39 37
44 43 44 43 43 43 42 42 42 42 42 41 41 41 42 42 43 43 44 44 45 46 46 47 47 48 48 47 47 47 47 47 48 49 50 54 57 59 60 60 59 57 53 50 50 52 53 52 50 48 47 46 45 45 44 44 41 38 35 32 31 31 30 30 30 30 31 33 35 37 37 38 39 40 41 41 41 42 42 41 40 41 40 38 36
44 44 44 44 44 44 44 43 43 44 43 43 43 43 44 44 45 45 46 46 47 47 48 48 48 49 49 49 49 49 49 49 49 50 51 53 55 57 59 60 61 61 58 54 51 52 54 54 52 51 52 50 49 47 46 45 44 42 40 36 34 34 34 34 34 33 33 34 35 35 36 35 35 36 38 39 41 43 44 44 43 44 43 42 40
45 45 44 45 45 45 45 45 45 45 46 46 46 46 46 46 46 47 47 48 48 49 49 49 50 50 50 50 50 50 50 50 50 51 52 53 54 56 58 59 60 61 61 59 55 53 53 55 55 55 55 55 53 51 48 46 45 45 45 42 39 38 37 37 37 36 35 35 34 34 34 33 31 32 31 31 34 38 41 43 44 44 44 44 43
47 46 45 46 47 46 47 47 47 48 48 48 48 48 48 48 48 49 49 50 50 51 51 51 51 51 52 52 52 51 51 51 52 52 53 54 55 56 58 59 60 60 61 61 60 57 55 56 57 58 58 58 57 56 54 51 48 48 49 47 44 43 42 41 39 38 37 35 33 32 33 33 30 29 28 27 27 31 36 39 41 41 42 42 42
48 47 46 47 48 48 48 48 49 50 50 49 49 50 50 50 51 51 51 52 52 52 53 53 53 53 53 53 54 54 53 53 53 54 54 55 56 57 58 59 60 61 61 61 62 62 59 58 58 59 60 60 60 59 58 56 53 51 51 51 49 48 47 45 43 41 39 37 36 35 37 37 35 33 33 32 28 28 31 33 34 36 37 38 38
Wind_Direction
287 288 289 290 289 291 292 292 292 293 294 295 296 297 295 295 297 298 301 302 303 304 304 305 305 305 306 305 305 306 307 307 307 308 307 303 302 300 298 297 296 296 295 296 297 297 295 294 296 295 296 296 294 291 291 295 296 292 285 277 260 246 234 231 231 230 231 230 229 229 228 227 223 218 210 202 196 191 202 213 210 208 208 210 215
288 290 290 290 290 291 291 293 294 294 294 295 296 296 296 296 297 297 299 300 302 304 304 305 305 305 305 304 305 305 305 306 306 307 306 302 301 299 297 296 295 295 294 295 295 295 293 293 294 294 296 296 293 291 291 293 292 286 277 265 250 238 228 228 230 229 229 229 228 228 227 226 224 220 213 205 201 196 201 212 215 213 214 215 220
289 289 290 290 290 291 292 293 293 295 295 295 296 296 297 298 298 298 299 300 302 304 304 305 305 305 304 304 304 303 304 304 304 305 304 301 299 297 295 294 294 293 293 293 293 293 291 292 293 293 296 295 292 290 290 289 285 278 268 254 240 230 223 225 229 228 228 228 227 227 227 226 225 221 216 210 207 203 202 211 219 219 219 220 225
289 289 290 289 290 291 292 292 293 295 295 295 296 297 298 298 298 299 299 300 301 303 304 305 305 304 303 303 302 301 302 302 302 302 301 299 297 296 294 293 293 292 292 292 292 291 291 292 293 293 295 294 292 290 288 284 276 267 255 242 234 224 219 221 227 229 228 227 227 227 227 226 226 223 219 215 214 212 209 211 219 224 225 227 230
288 290 290 289 290 291 292 292 292 293 294 294 295 295 297 298 299 299 299 300 301 302 304 304 304 303 301 301 300 300 301 300 300 300 299 297 295 294 292 292 292 291 291 291 291 290 291 292 293 294 294 294 292 290 285 276 264 254 242 231 232 224 219 220 224 229 229 228 228 227 228 227 227 226 222 220 221 220 219 218 221 228 232 234 237
288 289 290 290 291 291 292 292 291 293 294 294 294 295 297 298 299 300 299 300 301 302 302 302 301 299 299 299 298 299 299 298 298 297 296 295 293 292 291 291 291 291 290 290 290 291 292 293 294 294 294 293 292 288 279 267 251 246 236 224 232 227 222 221 221 228 230 229 228 227 228 228 228 228 226 224 224 224 224 225 227 231 235 240 243
288 289 290 291 291 291 292 292 292 293 294 294 294 296 297 298 299 299 299 299 300 300 299 298 298 297 298 297 297 297 296 295 294 294 294 293 292 291 290 290 291 290 290 290 290 292 293 294 295 295 294 293 291 284 271 256 239 236 226 218 230 230 227 222 220 230 233 231 229 227 228 229 230 230 229 228 227 226 226 227 229 232 237 241 245
287 288 289 290 291 291 292 292 292 293 293 293 294 295 296 297 297 298 298 299 299 299 298 296 296 297 296 295 295 294 293 292 291 291 292 292 290 289 290 290 290 289 289 290 291 293 294 295 296 296 294 292 288 276 262 243 223 222 218 216 224 228 229 221 219 230 233 231 228 227 229 231 233 232 230 231 231 230 230 231 231 233 237 241 246
286 287 288 289 290 291 292 292 292 292 293 293 294 294 295 296 297 297 297 298 298 297 296 295 295 295 295 293 291 291 289 288 288 289 290 290 289 288 288 289 289 288 288 289 292 294 295 297 297 295 293 290 284 269 251 227 211 212 217 221 223 224 226 220 218 228 231 229 226 226 230 234 235 235 233 232 232 232 234 236 236 237 240 243 247
286 286 287 288 289 290 291 291 292 292 292 293 293 294 295 295 295 296 296 296 296 295 295 294 294 293 292 290 288 287 285 284 284 286 288 288 288 287 287 288 288 288 288 289 292 295 297 297 296 294 290 286 279 264 240 213 205 208 216 226 227 225 223 219 220 227 229 227 225 225 230 234 235 235 236 234 230 230 234 238 241 243 245 248 251
285 286 286 287 288 289 289 290 291 291 292 292 292 293 293 294 294 295 295 295 294 294 293 292 292 291 289 286 284 283 280 279 281 283 285 286 286 286 285 286 287 287 288 290 294 297 299 297 295 291 287 282 274 259 228 205 204 208 216 224 227 229 225 217 219 229 230 226 224 227 230 232 233 235 236 234 229 228 231 236 241 246 249 253 255
284 285 285 286 287 287 288 288 289 289 290 290 291 291 292 292 293 294 294 293 293 292 291 290 290 288 285 282 280 278 275 276 279 282 284 285 284 283 284 285 286 286 288 292 296 300 299 296 292 288 284 278 270 251 216 202 205 209 216 219 218 224 224 219 225 237 235 228 224 227 230 231 234 235 236 235 229 227 229 233 239 245 250 255 257
284 284 284 285 285 286 286 287 288 288 289 289 290 290 291 292 292 293 293 292 291 290 289 288 287 285 281 279 277 273 272 275 279 282 283 283 282 281 282 283 284 286 290 295 299 301 298 294 289 285 282 275 266 243 210 202 205 207 213 216 214 214 217 221 232 241 235 228 226 228 230 231 234 236 238 238 232 227 228 232 238 244 250 255 258
283 284 284 284 285 285 286 286 287 288 288 289 290 290 291 291 292 292 291 291 290 288 287 285 283 280 277 275 272 270 272 275 278 280 281 281 280 281 281 282 284 288 294 299 301 300 296 292 288 284 280 272 263 238 210 202 203 206 210 214 215 211 211 218 229 237 229 224 226 227 231 232 234 238 240 240 236 231 229 232 238 245 250 255 258
283 283 284 284 284 285 285 286 286 287 288 289 289 290 291 291 291 291 290 289 288 286 284 282 279 276 273 270 268 269 272 274 276 278 278 279 279 280 280 282 287 294 299 301 300 298 297 292 287 282 278 269 258 236 211 202 202 206 210 212 214 211 211 215 222 232 229 226 226 225 230 233 234 239 241 240 239 235 231 233 238 245 251 255 258
283 283 283 284 284 284 285 285 286 287 287 288 289 290 290 290 290 289 288 287 285 283 281 278 275 272 269 267 266 267 270 272 274 275 275 274 276 278 280 286 294 300 302 302 300 298 298 292 287 281 276 268 253 237 213 202 204 207 209 212 212 212 214 214 219 236 238 233 230 227 231 234 236 242 245 241 239 240 236 235 239 245 251 256 261
282 283 283 283 283 284 284 285 286 286 287 288 289 289 289 289 288 287 286 284 282 280 278 274 271 268 265 263 263 264 266 269 271 272 271 270 272 278 284 294 300 303 303 302 301 300 299 292 287 281 276 268 250 237 214 203 205 207 209 213 212 215 219 217 220 238 241 235 235 233 234 235 237 244 249 244 241 245 244 241 241 246 253 259 265
281 282 282 283 283 283 284 285 285 286 286 287 288 288 287 287 286 284 283 280 278 277 273 270 266 264 262 261 261 262 264 266 268 268 267 267 271 281 293 301 302 303 304 303 303 302 301 293 288 282 277 267 247 235 214 203 206 207 208 214 214 217 222 220 221 232 238 240 241 239 237 236 237 243 248 247 244 246 248 248 247 250 257 263 268
281 281 281 282 282 283 283 284 284 285 286 286 286 286 285 284 282 281 279 276 274 272 269 266 263 261 260 260 260 261 263 264 265 265 264 266 275 288 297 301 301 302 302 303 306 304 302 295 289 283 277 265 245 232 212 202 204 207 210 216 218 222 224 222 221 225 235 241 243 242 241 236 236 241 246 248 245 246 251 254 255 256 260 265 270
280 281 281 281 282 282 282 283 283 284 285 285 284 283 281 280 278 277 274 272 270 268 265 263 261 260 259 258 259 261 261 262 262 261 263 269 279 290 294 295 296 297 299 303 306 305 301 296 291 284 276 263 245 230 211 202 202 205 211 218 222 227 224 220 220 226 239 243 240 239 239 236 236 238 242 247 247 250 254 258 261 259 261 268 275
279 280 280 281 281 281 281 282 283 283 283 283 281 280 278 276 274 272 270 267 265 264 262 260 259 259 258 258 258 259 260 260 260 263 267 272 278 285 286 287 289 290 294 302 306 304 298 295 292 285 275 262 245 228 211 204 203 201 208 216 223 229 225 222 223 228 242 243 237 235 235 236 237 236 238 244 248 251 254 260 262 260 263 272 279
278 279 279 280 280 280 280 281 282 282 282 281 279 277 275 273 270 268 266 263 260 259 257 256 256 256 257 257 258 258 258 259 264 269 271 272 275 278 279 279 285 289 293 300 301 298 294 292 291 285 276 262 246 229 212 208 206 203 209 213 219 229 227 226 227 227 238 241 232 232 235 237 238 237 239 243 247 248 251 257 259 263 266 271 275
278 278 278 279 279 279 280 280 280 281 280 279 277 275 273 270 267 264 262 259 256 254 253 252 252 254 255 256 257 257 257 259 264 266 267 272 274 273 272 273 282 287 289 291 290 289 290 290 289 286 278 265 250 230 215 210 209 209 213 213 215 226 227 228 230 228 231 237 232 230 234 238 238 239 242 245 247 247 250 255 260 267 268 269 272
277 277 277 278 278 278 278 279 279 279 278 277 275 273 271 268 265 262 259 257 254 252 250 250 249 251 253 255 257 256 256 258 257 254 259 269 274 276 273 272 279 283 283 281 281 284 287 287 288 286 280 268 251 232 217 212 211 212 215 215 215 224 227 228 233 232 227 230 234 233 237 240 239 239 241 243 245 247 248 252 257 262 265 270 275
275 275 276 276 276 277 277 277 277 277 276 274 273 271 268 265 263 260 258 256 253 250 249 248 248 249 251 255 256 255 256 256 254 255 259 267 273 274 270 271 277 280 278 275 277 281 283 284 286 286 282 268 251 235 219 214 214 214 215 216 217 224 230 230 235 236 229 231 234 231 239 245 243 240 241 243 242 244 246 249 254 256 261 266 270
274 274 274 274 275 275 276 276 276 275 274 272 271 269 266 263 261 259 257 254 252 249 248 247 246 246 246 247 248 253 257 256 255 257 261 267 268 260 262 269 270 271 272 272 276 280 280 282 284 285 282 268 251 237 223 216 216 216 216 218 219 223 231 232 237 238 232 234 235 228 235 249 249 242 241 243 241 244 247 249 253 254 259 264 265
272 272 273 273 273 274 274 274 274 273 272 270 268 267 265 262 260 258 256 254 251 249 247 247 245 243 243 244 247 252 254 255 257 261 264 263 256 252 260 263 261 265 268 270 276 278 278 280 280 280 280 268 251 238 227 218 217 217 216 219 222 223 228 232 237 239 235 235 238 233 234 250 257 245 239 241 242 245 250 249 251 253 257 262 262
271 271 272 272 272 272 273 272 272 272 270 269 266 265 264 261 259 257 255 253 250 248 247 246 244 242 243 245 249 250 248 253 259 261 261 255 249 253 258 256 260 268 267 268 274 276 277 278 276 274 273 266 252 240 230 221 218 218 217 219 224 225 227 232 236 239 237 237 240 239 236 244 257 249 239 240 243 247 249 248 249 250 252 257 258
270 271 271 271 271 271 271 270 269 269 268 267 265 263 262 260 259 257 255 252 249 248 246 245 244 242 241 240 244 243 239 246 252 252 250 245 245 249 252 255 260 265 266 269 269 272 278 277 274 270 265 261 254 242 234 225 219 218 218 219 225 227 227 231 235 237 237 239 242 242 238 239 250 256 250 244 244 246 246 247 248 249 251 254 253
270 270 271 271 270 269 268 267 267 266 265 264 263 262 260 259 258 256 254 252 249 248 246 244 244 241 236 233 235 236 234 236 243 247 243 240 244 245 246 254 258 263 270 269 265 272 278 275 271 268 262 255 252 245 237 230 222 219 219 221 226 230 229 230 234 236 236 239 243 243 240 240 246 259 262 251 246 245 245 248 251 251 255 256 253
270 270 270 270 269 268 266 265 264 263 262 261 260 259 258 257 256 254 253 251 249 247 245 244 242 239 235 232 230 232 232 231 235 242 237 232 239 242 242 251 257 258 261 261 266 276 276 270 269 267 262 254 248 245 238 233 227 222 220 221 227 232 232 232 232 234 236 239 242 243 242 243 246 254 261 253 248 250 252 254 255 254 259 262 256
269 269 268 267 266 265 265 264 263 262 260 259 258 256 255 254 253 252 251 250 249 247 245 243 241 239 237 235 233 234 231 224 224 231 231 227 231 235 240 251 254 248 252 255 264 276 270 262 263 263 263 255 247 242 237 234 230 226 222 221 226 231 233 233 233 233 236 240 242 244 244 246 248 250 250 245 244 251 255 258 259 261 265 269 266
268 267 266 265 264 263 263 263 262 261 259 257 255 253 252 251 250 249 249 248 247 246 245 243 241 240 238 236 234 232 230 221 219 222 223 225 229 234 242 248 243 243 251 256 262 269 265 260 258 258 261 256 248 243 237 234 230 228 225 223 224 228 231 233 233 234 236 239 242 245 246 247 248 248 244 235 231 236 241 245 251 258 265 269 269
265 264 263 263 263 263 262 261 260 259 257 255 253 251 249 248 247 247 246 245 245 244 244 243 242 241 239 238 233 229 229 223 218 218 218 220 224 227 232 236 239 243 248 255 260 259 260 265 261 255 256 254 250 244 238 234 230 228 227 224 224 225 227 229 231 234 236 237 241 245 247 248 247 246 243 238 234 235 237 238 242 250 258 262 262
262 262 261 261 262 262 261 259 257 256 255 253 251 250 247 245 244 245 244 242 241 242 241 241 240 241 240 238 234 229 227 223 218 219 219 218 218 218 217 217 222 228 235 248 255 254 257 261 256 251 250 252 251 246 241 236 230 227 227 225 224 224 225 226 228 231 235 236 239 243 246 248 246 244 244 243 242 243 245 248 252 256 258 259 256
259 260 259 260 261 260 259 257 256 253 252 252 249 248 246 244 243 242 242 240 239 238 238 238 237 237 237 236 234 229 222 217 216 215 215 214 214 214 213 211 208 209 220 235 246 252 254 250 248 248 245 247 251 248 244 239 231 227 226 225 225 224 224 224 226 228 232 234 237 241 245 248 247 244 244 245 247 248 249 252 257 261 263 263 261
256 258 259 259 259 258 258 256 254 251 250 249 247 246 244 243 242 240 239 238 237 236 235 235 234 233 232 231 230 226 219 214 213 213 212 210 211 213 213 212 210 210 217 228 239 247 251 252 252 248 242 245 251 249 245 242 235 229 227 226 225 226 224 224 225 226 228 231 234 238 242 245 246 244 244 246 248 251 253 254 257 260 264 267 265
254 257 258 258 258 257 256 254 252 250 247 247 246 244 243 242 241 239 237 236 235 234 233 232 232 231 229 228 227 224 220 216 215 214 213 211 211 210 209 211 215 219 222 226 233 241 247 252 253 249 246 245 248 246 242 240 238 232 228 227 226 226 226 225 225 226 227 229 231 234 237 240 242 243 244 246 248 251 254 257 259 260 263 267 266
254 255 257 257 257 257 255 253 251 249 246 245 245 243 242 241 240 239 236 234 233 233 233 231 231 230 228 226 225 223 220 219 217 215 213 210 210 210 209 212 218 223 226 226 230 235 238 240 243 245 243 242 244 243 240 238 237 235 231 228 226 226 226 226 226 227 229 230 231 232 235 238 240 243 244 246 248 250 253 257 259 261 263 267 267
253 254 255 255 256 256 255 253 250 248 246 244 244 243 242 241 241 240 237 234 232 232 232 231 230 230 229 228 225 222 220 219 217 215 213 210 209 210 213 216 220 224 227 229 232 233 234 233 233 236 235 233 236 239 239 238 236 235 233 229 227 226 226 227 227 228 231 233 234 233 235 238 241 243 244 246 247 249 252 255 257 260 263 265 267
252 253 254 254 256 256 256 255 251 248 245 243 242 242 242 241 240 240 239 236 234 233 233 233 232 231 230 229 227 225 221 219 217 216 214 212 210 211 215 218 220 223 225 228 233 234 235 235 231 231 231 229 229 233 235 237 236 234 232 230 228 227 227 227 227 228 231 234 236 236 236 240 243 244 245 246 248 250 253 254 256 260 263 266 268
252 253 254 254 255 256 257 256 253 249 246 243 242 241 241 240 240 240 240 239 237 235 235 235 235 235 233 231 230 229 226 221 219 218 215 213 213 215 217 217 218 222 223 224 229 233 235 235 232 231 231 230 229 229 228 231 233 232 231 229 228 229 227 227 228 227 229 233 237 238 239 241 244 246 246 248 250 253 256 257 258 261 265 267 269
252 254 254 255 255 256 256 257 255 252 248 244 242 241 240 240 240 240 240 241 240 239 238 238 238 238 236 234 232 231 230 226 223 222 220 217 216 218 221 220 219 221 223 223 224 229 232 232 232 232 231 232 231 227 225 226 228 228 228 226 227 229 229 229 230 229 228 231 236 239 241 242 244 246 248 250 252 254 257 259 261 262 265 267 268
251 253 254 255 256 256 256 257 256 254 250 247 244 242 241 240 240 240 239 240 241 241 240 240 240 240 240 238 235 233 232 230 227 224 224 224 221 220 223 223 221 221 223 224 224 227 230 230 231 231 230 230 231 229 228 228 226 223 221 220 221 227 232 232 233 234 232 232 235 238 240 243 244 246 248 250 253 254 257 259 261 263 264 265 266
251 253 255 255 255 256 256 256 256 255 252 249 246 244 243 242 241 240 240 240 240 240 240 241 241 241 241 240 239 237 233 231 230 228 227 229 229 226 225 224 223 222 222 224 226 227 229 229 230 231 229 228 229 231 232 231 227 221 218 217 219 223 230 232 234 237 236 235 237 239 240 243 245 247 249 251 253 255 256 258 259 261 261 261 263
252 252 254 255 256 256 256 256 256 256 254 251 248 246 244 243 242 242 241 241 241 241 241 240 240 240 241 241 240 240 237 233 231 231 230 231 233 233 231 230 228 225 223 223 225 228 229 229 230 230 227 226 228 229 231 230 226 223 220 218 218 221 225 229 233 237 238 236 238 239 239 240 243 246 248 250 252 254 254 255 256 257 259 260 261
253 252 253 255 255 256 256 257 256 256 255 253 250 248 246 245 244 243 242 242 242 243 242 242 241 240 240 241 240 240 240 238 234 232 231 232 235 236 235 235 234 231 227 223 223 226 229 229 229 228 226 226 227 228 230 229 224 224 223 219 218 219 220 222 228 234 237 238 238 238 238 238 240 243 245 246 249 251 252 253 254 256 258 260 261
253 252 252 253 254 255 256 256 257 256 255 254 252 250 248 246 245 245 244 244 243 243 243 243 243 242 241 241 241 240 239 239 238 236 233 232 234 236 237 238 238 237 234 229 223 222 226 229 229 228 228 228 229 230 232 230 227 226 225 221 219 220 219 219 221 223 228 234 237 238 240 241 241 243 245 246 247 250 252 253 253 254 256 258 258
255 253 252 253 253 254 254 255 256 256 255 255 253 252 251 249 247 246 245 245 244 244 244 244 243 243 243 243 242 242 240 239 239 239 237 234 234 235 237 238 239 239 238 235 229 223 223 226 228 229 230 230 231 231 232 231 229 229 229 227 223 222 222 223 223 221 221 226 231 234 238 241 242 244 246 247 249 250 251 252 252 251 253 254 254
257 256 254 253 253 253 253 254 255 256 256 255 255 253 252 251 249 248 247 246 245 245 244 244 244 243 243 244 243 243 243 241 240 240 239 238 236 235 236 238 239 240 240 239 236 230 224 223 226 228 230 231 232 232 232 231 229 230 232 231 227 223 223 225 226 225 224 224 225 228 230 230 232 237 242 245 249 252 251 251 252 253 253 253 253
258 257 256 255 254 254 253 253 255 256 257 256 256 255 254 252 251 249 248 248 247 246 246 245 244 244 244 244 243 243 243 243 242 241 240 240 239 238 237 237 238 240 241 241 240 238 232 226 224 225 228 230 231 232 232 232 230 230 232 233 231 227 226 227 227 228 228 227 225 227 229 229 228 230 235 237 240 248 253 253 254 254 253 253 254
Height
10900 10903 10904 10906 10906 10907 10907 10905 10905 10905 10905 10906 10906 10903 10902 10900 10897 10896 10893 10891 10889 10887 10884 10882 10879 10876 10874 10873 10871 10870 10869 10869 10869 10869 10867 10865 10864 10862 10860 10858 10857 10855 10853 10853 10853 10854 10853 10852 10851 10851 10851 10851 10850 10850 10849 10848 10848 10849 10849 10849 10849 10850 10850 10852 10853 10854 10856 10857 10858 10860 10860 10861 10862 10862 10861 10860 10859 10859 10859 10860 10860 10861 10861 10861 10861
10896 10898 10898 10899 10900 10902 10902 10900 10900 10899 10900 10901 10900 10898 10897 10895 10893 10892 10889 10887 10885 10883 10880 10877 10875 10870 10868 10867 10865 10865 10864 10864 10864 10864 10863 10861 10860 10858 10856 10855 10853 10851 10850 10849 10850 10851 10850 10849 10849 10848 10848 10849 10848 10847 10846 10845 10845 10846 10846 10847 10847 10848 10849 10851 10852 10853 10855 10856 10857 10858 10859 10860 10861 10861 10861 10860 10859 10858 10859 10859 10860 10860 10860 10860 10861
10892 10893 10893 10893 10894 10896 10897 10896 10895 10894 10895 10895 10894 10892 10892 10890 10888 10887 10885 10883 10881 10878 10876 10872 10870 10866 10863 10862 10860 10859 10859 10859 10859 10859 10859 10857 10855 10853 10852 10851 10850 10848 10847 10846 10848 10848 10848 10847 10846 10846 10845 10846 10845 10845 10844 10842 10843 10843 10844 10845 10846 10846 10848 10850 10851 10852 10853 10854 10856 10857 10858 10859 10860 10861 10861 10860 10859 10859 10858 10859 10859 10860 10860 10860 10860
10887 10888 10888 10887 10889 10891 10892 10891 10890 10889 10889 10889 10888 10887 10886 10885 10883 10883 10881 10878 10876 10874 10871 10867 10865 10861 10858 10857 10856 10854 10854 10854 10855 10855 10854 10852 10851 10849 10847 10847 10846 10844 10843 10843 10844 10845 10845 10844 10843 10842 10842 10843 10843 10842 10841 10840 10840 10841 10842 10843 10844 10845 10846 10848 10849 10851 10852 10853 10854 10856 10857 10858 10860 10860 10860 10860 10859 10859 10858 10858 10859 10859 10860 10860 10860
10883 10881 10881 10881 10883 10886 10887 10886 10885 10884 10884 10884 10883 10882 10881 10880 10878 10877 10876 10874 10873 10870 10866 10862 10859 10857 10854 10853 10852 10849 10849 10850 10850 10850 10849 10848 10846 10845 10843 10842 10842 10840 10839 10839 10841 10842 10842 10841 10840 10839 10839 10840 10840 10839 10838 10837 10838 10839 10839 10841 10842 10843 10844 10846 10848 10850 10851 10852 10853 10854 10856 10857 10859 10859 10860 10860 10859 10859 10859 10859 10859 10859 10859 10859 10860
10878 10876 10876 10874 10877 10880 10881 10881 10879 10879 10879 10878 10877 10876 10876 10875 10873 10872 10870 10869 10868 10866 10862 10857 10855 10853 10849 10848 10847 10844 10844 10844 10845 10845 10844 10842 10841 10840 10839 10837 10837 10836 10835 10835 10837 10838 10838 10837 10837 10836 10836 10837 10837 10836 10835 10835 10835 10836 10836 10838 10840 10842 10843 10845 10847 10849 10850 10851 10852 10853 10855 10856 10857 10858 10859 10859 10859 10859 10859 10858 10858 10858 10859 10859 10859
10874 10872 10873 10870 10870 10873 10875 10875 10874 10874 10873 10873 10872 10871 10870 10870 10867 10866 10865 10864 10864 10861 10857 10853 10851 10850 10846 10843 10842 10839 10838 10839 10840 10840 10839 10838 10836 10835 10835 10833 10833 10832 10831 10832 10834 10835 10835 10834 10833 10833 10832 10833 10834 10833 10832 10832 10833 10833 10833 10835 10838 10841 10842 10844 10846 10848 10849 10851 10852 10853 10854 10855 10856 10857 10857 10858 10858 10858 10858 10858 10858 10857 10857 10858 10858
10870 10867 10868 10867 10864 10867 10868 10869 10869 10869 10869 10867 10866 10865 10864 10864 10862 10860 10859 10859 10858 10856 10852 10848 10847 10846 10843 10840 10837 10835 10834 10834 10834 10835 10834 10833 10832 10831 10830 10829 10829 10828 10827 10828 10830 10831 10831 10830 10829 10829 10828 10829 10830 10829 10829 10829 10830 10831 10832 10833 10836 10839 10841 10843 10845 10847 10848 10850 10851 10852 10852 10853 10854 10855 10856 10856 10856 10857 10857 10857 10857 10856 10856 10856 10857
10866 10864 10864 10863 10861 10860 10861 10862 10863 10863 10863 10862 10860 10860 10859 10858 10856 10854 10854 10853 10852 10850 10848 10844 10843 10842 10840 10836 10834 10832 10830 10830 10829 10830 10830 10829 10828 10826 10826 10825 10825 10824 10824 10825 10827 10828 10827 10827 10826 10825 10825 10825 10826 10826 10825 10826 10828 10829 10831 10832 10834 10836 10840 10842 10843 10845 10847 10849 10850 10851 10851 10852 10853 10853 10854 10855 10855 10855 10855 10855 10856 10855 10855 10855 10856
10860 10860 10860 10860 10857 10854 10854 10856 10857 10856 10856 10855 10854 10854 10853 10851 10850 10849 10849 10848 10845 10844 10842 10839 10838 10837 10835 10831 10830 10829 10827 10826 10825 10825 10825 10825 10824 10822 10821 10821 10821 10821 10821 10822 10824 10824 10824 10823 10822 10821 10821 10821 10822 10822 10822 10823 10825 10826 10828 10830 10832 10835 10838 10841 10842 10844 10846 10848 10849 10849 10849 10850 10850 10851 10852 10853 10853 10854 10854 10854 10854 10854 10854 10854 10855
10854 10855 10855 10854 10853 10850 10849 10849 10850 10850 10849 10847 10847 10847 10846 10845 10844 10844 10843 10842 10840 10838 10835 10833 10832 10831 10829 10826 10825 10824 10823 10822 10821 10821 10821 10821 10820 10819 10818 10818 10818 10818 10818 10819 10821 10821 10820 10819 10817 10817 10817 10817 10818 10819 10819 10821 10822 10824 10826 10828 10831 10834 10837 10839 10841 10843 10844 10846 10846 10847 10847 10848 10849 10850 10850 10851 10852 10852 10852 10853 10853 10853 10853 10853 10854
10848 10848 10849 10848 10847 10845 10844 10843 10843 10844 10842 10841 10840 10840 10839 10839 10837 10838 10837 10836 10834 10832 10830 10827 10827 10826 10823 10821 10821 10820 10819 10818 10817 10817 10817 10817 10816 10815 10815 10814 10815 10815 10815 10816 10817 10817 10816 10814 10813 10813 10813 10814 10815 10816 10816 10818 10820 10822 10824 10826 10829 10832 10835 10838 10840 10842 10843 10843 10844 10845 10845 10846 10847 10848 10849 10849 10850 10850 10851 10851 10851 10852 10852 10852 10852
10840 10840 10841 10840 10840 10839 10837 10835 10836 10836 10835 10834 10833 10832 10832 10833 10831 10831 10830 10829 10828 10826 10824 10821 10821 10820 10817 10816 10816 10816 10815 10814 10813 10813 10813 10813 10812 10812 10812 10812 10812 10812 10812 10813 10813 10813 10812 10810 10810 10810 10810 10812 10813 10814 10814 10815 10817 10820 10822 10824 10827 10829 10833 10835 10838 10839 10840 10841 10842 10843 10844 10844 10845 10846 10847 10848 10848 10849 10849 10850 10850 10850 10850 10850 10851
10831 10831 10831 10832 10832 10831 10829 10828 10828 10827 10826 10826 10826 10824 10825 10826 10825 10824 10823 10822 10821 10820 10818 10815 10814 10814 10812 10811 10812 10812 10810 10810 10810 10810 10810 10809 10809 10809 10809 10809 10809 10810 10809 10809 10809 10809 10808 10807 10806 10807 10808 10809 10810 10811 10812 10813 10815 10818 10820 10822 10825 10827 10830 10832 10835 10836 10837 10838 10840 10841 10842 10842 10843 10844 10845 10846 10847 10847 10848 10849 10849 10849 10849 10849 10849
10822 10822 10822 10822 10824 10824 10823 10821 10821 10820 10819 10819 10819 10818 10817 10818 10818 10817 10815 10814 10814 10812 10812 10810 10808 10809 10808 10807 10808 10808 10806 10807 10807 10807 10807 10806 10807 10807 10806 10806 10807 10807 10806 10805 10805 10805 10805 10804 10804 10804 10805 10806 10807 10808 10810 10811 10813 10815 10818 10820 10822 10825 10827 10829 10832 10834 10835 10836 10837 10839 10840 10840 10841 10843 10844 10845 10846 10846 10847 10847 10848 10848 10848 10848 10848
10814 10814 10814 10814 10816 10816 10816 10815 10814 10814 10812 10813 10813 10813 10811 10811 10810 10809 10808 10807 10806 10805 10805 10804 10803 10804 10804 10804 10804 10805 10804 10804 10804 10804 10804 10804 10805 10804 10804 10804 10804 10803 10803 10802 10802 10802 10802 10802 10801 10802 10803 10804 10805 10806 10807 10809 10811 10813 10816 10818 10820 10823 10825 10827 10830 10832 10833 10834 10836 10837 10838 10839 10840 10841 10842 10843 10844 10845 10846 10846 10847 10847 10847 10847 10847
10807 10806 10806 10806 10808 10808 10808 10809 10808 10807 10807 10807 10807 10807 10805 10804 10803 10802 10801 10800 10799 10799 10799 10798 10799 10799 10800 10800 10800 10801 10801 10800 10801 10802 10802 10802 10803 10802 10802 10801 10801 10800 10800 10800 10799 10799 10799 10800 10799 10800 10800 10801 10802 10803 10804 10807 10809 10811 10814 10816 10818 10820 10822 10825 10827 10829 10831 10832 10834 10835 10836 10837 10838 10840 10841 10842 10843 10844 10844 10845 10846 10846 10846 10846 10846
10799 10799 10799 10799 10799 10800 10801 10801 10801 10801 10801 10801 10801 10800 10799 10797 10796 10795 10795 10794 10793 10792 10793 10793 10794 10795 10795 10796 10796 10797 10797 10797 10798 10799 10800 10801 10801 10800 10799 10798 10798 10798 10798 10798 10797 10797 10797 10798 10797 10798 10798 10799 10800 10800 10802 10805 10807 10810 10812 10814 10816 10818 10820 10822 10825 10826 10828 10830 10832 10834 10834 10835 10837 10838 10839 10841 10841 10842 10843 10844 10844 10845 10845 10845 10845
10790 10791 10793 10792 10792 10793 10793 10794 10794 10794 10795 10796 10795 10794 10793 10791 10789 10789 10788 10787 10787 10786 10787 10787 10789 10789 10790 10791 10792 10793 10794 10794 10795 10796 10798 10798 10798 10797 10796 10795 10795 10795 10796 10796 10795 10795 10795 10796 10796 10796 10796 10797 10797 10798 10799 10803 10805 10808 10811 10812 10814 10816 10818 10820 10822 10824 10825 10827 10830 10831 10832 10833 10835 10836 10837 10839 10840 10840 10841 10842 10843 10843 10844 10844 10844
10781 10783 10784 10785 10786 10785 10785 10786 10787 10788 10789 10789 10789 10788 10787 10785 10784 10783 10783 10781 10780 10780 10781 10782 10783 10784 10786 10787 10788 10789 10790 10790 10792 10794 10795 10795 10794 10793 10793 10793 10793 10793 10794 10794 10793 10794 10794 10794 10794 10794 10795 10795 10796 10796 10798 10801 10803 10807 10809 10811 10812 10813 10815 10817 10819 10821 10822 10824 10827 10828 10830 10831 10832 10834 10835 10837 10838 10839 10840 10841 10841 10842 10842 10842 10842
10774 10775 10776 10777 10779 10778 10778 10778 10779 10781 10782 10782 10783 10782 10781 10779 10778 10778 10777 10777 10776 10776 10777 10778 10778 10779 10781 10783 10785 10786 10786 10787 10788 10790 10791 10791 10790 10789 10790 10790 10790 10791 10791 10792 10792 10792 10792 10792 10793 10793 10793 10794 10794 10795 10797 10800 10802 10805 10807 10808 10809 10811 10813 10815 10817 10818 10819 10821 10824 10826 10827 10829 10830 10831 10833 10834 10836 10837 10838 10839 10839 10840 10840 10840 10840
10767 10768 10768 10769 10770 10770 10770 10771 10772 10773 10774 10774 10775 10775 10775 10774 10773 10772 10772 10772 10772 10772 10772 10773 10774 10775 10777 10779 10781 10782 10783 10783 10784 10786 10787 10786 10786 10786 10787 10787 10787 10789 10789 10790 10790 10790 10790 10790 10791 10791 10792 10793 10793 10794 10795 10798 10801 10804 10805 10805 10807 10808 10810 10812 10813 10814 10816 10818 10820 10823 10825 10826 10828 10829 10830 10832 10833 10835 10836 10837 10837 10838 10838 10838 10838
10759 10759 10760 10761 10761 10762 10762 10763 10764 10765 10766 10766 10767 10768 10769 10768 10767 10767 10767 10767 10767 10767 10767 10769 10770 10771 10773 10775 10777 10778 10779 10779 10781 10783 10782 10780 10781 10782 10784 10784 10785 10786 10787 10787 10787 10788 10788 10788 10788 10789 10790 10791 10792 10793 10794 10796 10799 10801 10802 10803 10805 10805 10807 10809 10809 10811 10814 10816 10817 10820 10822 10824 10825 10826 10828 10829 10830 10832 10833 10834 10835 10836 10836 10836 10836
10751 10750 10752 10752 10753 10754 10754 10755 10756 10758 10758 10758 10759 10761 10762 10762 10761 10761 10761 10761 10762 10763 10763 10765 10767 10769 10770 10772 10773 10774 10775 10776 10778 10779 10778 10776 10776 10777 10779 10780 10781 10783 10783 10784 10784 10785 10785 10785 10786 10787 10788 10789 10790 10791 10793 10794 10797 10799 10800 10802 10803 10804 10805 10806 10806 10808 10811 10813 10815 10817 10819 10821 10823 10824 10825 10826 10827 10829 10830 10831 10832 10833 10834 10834 10835
10743 10743 10744 10744 10745 10746 10746 10747 10748 10750 10751 10751 10751 10753 10755 10755 10755 10755 10756 10757 10757 10758 10760 10761 10764 10767 10769 10769 10768 10769 10771 10773 10773 10774 10774 10774 10772 10773 10774 10775 10777 10779 10779 10780 10781 10782 10782 10783 10783 10784 10786 10787 10787 10789 10791 10793 10795 10797 10799 10801 10802 10802 10802 10803 10804 10805 10808 10810 10812 10814 10817 10819 10820 10821 10822 10823 10825 10826 10827 10828 10829 10830 10831 10832 10832
10736 10735 10737 10737 10737 10738 10738 10739 10740 10743 10744 10744 10744 10745 10748 10748 10748 10749 10751 10752 10752 10753 10755 10757 10760 10764 10766 10764 10762 10764 10767 10769 10770 10770 10770 10771 10769 10770 10770 10771 10773 10775 10777 10778 10779 10779 10780 10780 10780 10781 10782 10784 10785 10786 10788 10790 10793 10795 10797 10799 10799 10800 10800 10801 10801 10802 10805 10808 10809 10811 10814 10816 10817 10818 10820 10821 10822 10823 10824 10825 10826 10827 10828 10829 10830
10728 10727 10729 10730 10731 10730 10731 10732 10732 10735 10736 10737 10738 10738 10740 10742 10742 10743 10745 10746 10747 10748 10749 10752 10756 10758 10760 10758 10757 10761 10764 10764 10767 10768 10768 10768 10767 10768 10768 10769 10770 10772 10775 10776 10776 10777 10777 10777 10777 10778 10779 10780 10781 10782 10785 10787 10790 10792 10794 10796 10797 10797 10798 10799 10799 10800 10803 10805 10806 10809 10811 10813 10814 10815 10817 10818 10819 10820 10821 10822 10823 10824 10825 10826 10827
10720 10719 10722 10723 10724 10724 10724 10726 10725 10727 10729 10730 10731 10731 10733 10734 10736 10736 10738 10740 10741 10743 10744 10747 10749 10752 10756 10756 10756 10759 10761 10762 10764 10765 10765 10765 10766 10766 10766 10766 10768 10769 10773 10773 10773 10774 10774 10774 10774 10775 10775 10776 10778 10779 10781 10783 10787 10789 10792 10794 10795 10795 10796 10797 10797 10798 10800 10803 10804 10806 10808 10810 10811 10812 10814 10815 10816 10817 10818 10819 10820 10821 10823 10824 10824
10713 10712 10715 10716 10717 10718 10718 10720 10720 10721 10722 10723 10725 10726 10727 10727 10729 10730 10732 10734 10735 10737 10739 10741 10743 10747 10751 10753 10754 10756 10758 10760 10761 10762 10762 10763 10763 10764 10764 10764 10765 10767 10769 10770 10771 10771 10770 10771 10771 10772 10772 10772 10774 10776 10777 10779 10782 10785 10788 10790 10792 10793 10795 10795 10796 10797 10798 10800 10801 10803 10805 10807 10808 10810 10811 10812 10813 10814 10815 10817 10818 10819 10820 10821 10822
10706 10706 10708 10709 10710 10712 10713 10714 10715 10716 10716 10718 10719 10720 10721 10721 10722 10724 10725 10728 10729 10731 10733 10736 10738 10741 10744 10748 10750 10752 10755 10757 10759 10760 10759 10761 10761 10761 10761 10762 10764 10766 10766 10766 10767 10768 10767 10767 10768 10769 10768 10769 10770 10773 10775 10776 10778 10781 10784 10787 10789 10791 10792 10793 10794 10795 10796 10798 10798 10800 10802 10804 10805 10807 10807 10809 10810 10811 10812 10814 10815 10817 10818 10818 10819
10700 10700 10702 10703 10704 10705 10707 10708 10710 10711 10712 10712 10714 10715 10716 10715 10717 10718 10719 10722 10724 10725 10728 10731 10733 10735 10738 10742 10745 10748 10751 10754 10757 10757 10756 10759 10760 10760 10761 10760 10763 10765 10764 10763 10764 10765 10765 10764 10764 10766 10765 10766 10767 10769 10771 10773 10774 10776 10780 10783 10785 10788 10789 10791 10792 10793 10795 10795 10796 10797 10799 10801 10802 10804 10804 10805 10806 10808 10810 10812 10813 10814 10815 10816 10817
10694 10694 10696 10696 10697 10699 10700 10703 10704 10706 10707 10707 10708 10710 10710 10710 10712 10712 10714 10716 10718 10719 10722 10725 10727 10729 10732 10736 10740 10743 10747 10750 10754 10756 10755 10756 10758 10759 10760 10760 10760 10762 10761 10761 10762 10762 10762 10762 10762 10762 10763 10763 10763 10765 10767 10769 10771 10772 10775 10778 10782 10784 10786 10788 10790 10791 10792 10793 10794 10795 10797 10798 10800 10802 10802 10802 10803 10805 10807 10809 10810 10811 10813 10814 10815
10687 10688 10690 10690 10691 10693 10695 10698 10699 10700 10702 10702 10703 10705 10705 10706 10706 10707 10709 10711 10712 10714 10716 10719 10722 10723 10725 10729 10733 10738 10742 10745 10749 10753 10753 10755 10756 10757 10758 10759 10758 10757 10757 10759 10760 10760 10759 10759 10759 10759 10759 10760 10760 10761 10763 10766 10767 10769 10771 10774 10778 10780 10782 10785 10786 10788 10790 10790 10792 10793 10794 10796 10797 10799 10800 10800 10801 10802 10804 10805 10807 10808 10810 10811 10812
10680 10682 10683 10685 10687 10689 10691 10693 10694 10695 10696 10698 10698 10700 10701 10702 10702 10702 10704 10707 10707 10709 10711 10714 10716 10718 10719 10722 10727 10733 10736 10739 10744 10746 10748 10753 10754 10753 10755 10757 10756 10754 10756 10756 10755 10756 10757 10756 10756 10756 10756 10757 10758 10758 10760 10762 10764 10765 10767 10770 10773 10776 10778 10781 10783 10785 10786 10788 10789 10790 10791 10793 10795 10796 10798 10798 10799 10800 10801 10802 10804 10806 10807 10808 10809
10674 10677 10678 10680 10683 10684 10687 10689 10690 10691 10692 10693 10694 10695 10697 10697 10698 10699 10701 10703 10704 10705 10707 10709 10711 10713 10715 10717 10721 10726 10731 10734 10738 10740 10743 10748 10750 10750 10750 10751 10752 10753 10754 10753 10748 10749 10755 10755 10754 10754 10753 10754 10755 10755 10757 10759 10760 10762 10763 10765 10768 10771 10774 10777 10779 10781 10783 10785 10786 10787 10789 10790 10792 10793 10794 10795 10796 10797 10799 10800 10801 10803 10804 10806 10807
10669 10672 10674 10676 10679 10680 10682 10684 10686 10687 10688 10689 10690 10691 10693 10693 10694 10696 10697 10699 10700 10702 10703 10706 10708 10710 10711 10713 10716 10721 10726 10730 10733 10735 10738 10742 10744 10745 10745 10744 10745 10747 10748 10748 10743 10743 10750 10751 10751 10752 10751 10751 10752 10753 10754 10756 10758 10759 10760 10761 10764 10766 10770 10773 10775 10778 10780 10781 10783 10784 10786 10787 10788 10790 10791 10792 10793 10794 10796 10797 10799 10800 10801 10803 10804
10666 10667 10670 10672 10674 10676 10678 10680 10681 10683 10684 10685 10686 10687 10689 10690 10691 10692 10694 10695 10697 10698 10700 10702 10704 10706 10709 10710 10712 10716 10721 10725 10727 10729 10733 10736 10737 10739 10740 10741 10741 10742 10743 10744 10741 10741 10745 10747 10748 10749 10749 10749 10750 10751 10752 10753 10755 10756 10757 10758 10760 10763 10765 10769 10772 10774 10777 10778 10780 10781 10783 10784 10784 10786 10788 10789 10790 10791 10793 10794 10796 10797 10798 10800 10802
10664 10664 10666 10668 10670 10672 10674 10676 10677 10679 10680 10681 10682 10683 10685 10686 10687 10688 10690 10692 10693 10695 10697 10699 10701 10703 10706 10707 10709 10713 10717 10720 10722 10725 10727 10730 10731 10732 10735 10738 10738 10738 10739 10740 10740 10741 10742 10743 10745 10746 10747 10748 10748 10749 10749 10750 10752 10753 10755 10756 10758 10759 10761 10764 10767 10770 10773 10774 10776 10777 10778 10780 10781 10782 10784 10786 10787 10789 10790 10791 10793 10795 10796 10797 10799
10661 10662 10663 10664 10666 10668 10669 10671 10673 10674 10676 10678 10679 10680 10680 10682 10683 10684 10687 10689 10690 10691 10693 10695 10697 10700 10702 10704 10707 10710 10712 10714 10718 10720 10723 10724 10726 10728 10730 10732 10733 10733 10734 10736 10738 10739 10738 10740 10742 10744 10745 10746 10747 10747 10747 10747 10749 10750 10752 10753 10754 10756 10758 10760 10763 10766 10769 10770 10772 10773 10774 10776 10778 10780 10781 10783 10784 10786 10787 10789 10790 10792 10793 10794 10796
10658 10659 10660 10661 10663 10664 10665 10667 10669 10670 10672 10674 10675 10676 10677 10678 10679 10680 10683 10685 10686 10687 10689 10691 10694 10695 10697 10701 10704 10706 10707 10710 10713 10715 10717 10718 10720 10723 10725 10727 10728 10728 10730 10731 10734 10736 10736 10737 10739 10741 10742 10744 10745 10745 10745 10745 10746 10747 10748 10750 10751 10752 10754 10756 10759 10762 10764 10766 10767 10769 10771 10773 10775 10776 10778 10780 10781 10783 10784 10786 10787 10789 10790 10791 10792
10655 10655 10656 10658 10659 10660 10661 10662 10664 10666 10668 10670 10671 10672 10673 10674 10675 10677 10678 10680 10682 10684 10685 10687 10689 10691 10693 10697 10699 10701 10703 10706 10708 10710 10712 10714 10716 10718 10720 10722 10723 10723 10725 10727 10730 10732 10732 10733 10736 10737 10738 10740 10742 10743 10743 10743 10744 10744 10745 10746 10748 10750 10751 10752 10754 10756 10759 10761 10763 10765 10767 10769 10771 10773 10775 10777 10779 10780 10781 10782 10784 10785 10786 10787 10789
10651 10651 10652 10654 10655 10656 10656 10657 10659 10661 10664 10665 10667 10669 10669 10670 10671 10673 10674 10676 10678 10680 10682 10683 10685 10687 10690 10692 10694 10696 10698 10701 10704 10705 10708 10710 10711 10713 10714 10717 10718 10719 10720 10723 10726 10728 10728 10730 10731 10733 10734 10736 10738 10739 10740 10740 10740 10741 10742 10744 10745 10746 10748 10749 10750 10752 10754 10757 10758 10761 10764 10765 10767 10769 10771 10773 10775 10776 10777 10778 10780 10782 10782 10783 10785
10647 10647 10648 10650 10651 10652 10652 10653 10654 10657 10659 10661 10663 10665 10666 10667 10668 10669 10671 10672 10673 10675 10677 10679 10681 10682 10684 10687 10689 10690 10693 10697 10699 10701 10703 10705 10706 10708 10709 10711 10713 10714 10716 10719 10722 10723 10724 10725 10726 10727 10729 10731 10733 10735 10736 10737 10737 10738 10739 10741 10741 10743 10745 10746 10746 10748 10750 10752 10754 10757 10760 10762 10763 10765 10768 10770 10770 10772 10773 10774 10775 10777 10778 10779 10780
10643 10643 10644 10645 10646 10647 10648 10649 10650 10652 10654 10656 10659 10660 10662 10663 10664 10665 10667 10667 10669 10671 10672 10674 10676 10677 10679 10681 10683 10685 10688 10691 10693 10695 10697 10699 10702 10703 10704 10706 10708 10709 10711 10714 10716 10717 10719 10720 10720 10722 10725 10727 10728 10730 10732 10733 10734 10735 10736 10737 10738 10740 10742 10743 10743 10745 10747 10749 10750 10752 10756 10757 10759 10761 10764 10765 10766 10767 10769 10770 10771 10772 10774 10775 10775
10638 10639 10640 10641 10642 10642 10644 10645 10645 10647 10649 10651 10654 10656 10657 10659 10660 10661 10662 10663 10664 10666 10667 10669 10671 10672 10674 10676 10678 10680 10682 10685 10687 10689 10692 10693 10695 10697 10698 10700 10702 10704 10706 10708 10711 10712 10714 10715 10716 10717 10720 10722 10723 10725 10728 10729 10730 10731 10732 10733 10734 10736 10738 10739 10740 10742 10744 10745 10746 10748 10751 10753 10755 10757 10759 10761 10762 10763 10764 10765 10766 10767 10768 10770 10771
10633 10635 10635 10636 10637 10638 10639 10640 10641 10642 10644 10646 10648 10650 10652 10653 10655 10656 10658 10659 10659 10660 10662 10664 10665 10667 10668 10670 10672 10674 10677 10679 10681 10683 10686 10687 10688 10690 10692 10694 10696 10698 10701 10703 10705 10707 10708 10710 10712 10713 10715 10716 10718 10720 10722 10724 10725 10727 10728 10729 10730 10732 10734 10735 10737 10738 10740 10741 10743 10744 10746 10749 10750 10752 10754 10756 10757 10758 10759 10760 10762 10762 10763 10765 10768
10628 10630 10630 10632 10633 10633 10635 10635 10636 10637 10639 10641 10642 10644 10646 10647 10649 10651 10652 10654 10655 10656 10657 10658 10660 10662 10663 10665 10667 10669 10671 10673 10675 10677 10680 10682 10682 10684 10686 10688 10690 10692 10695 10698 10700 10702 10703 10705 10707 10709 10710 10712 10714 10715 10716 10718 10721 10722 10724 10725 10726 10728 10729 10731 10732 10734 10736 10737 10739 10740 10742 10744 10745 10747 10749 10751 10752 10753 10754 10756 10757 10758 10759 10762 10764
10623 10624 10626 10627 10628 10629 10630 10631 10632 10632 10633 10634 10636 10638 10640 10642 10643 10645 10647 10648 10649 10651 10652 10653 10655 10656 10658 10660 10661 10663 10665 10667 10670 10672 10674 10676 10677 10679 10681 10682 10683 10685 10688 10691 10694 10696 10698 10700 10702 10703 10705 10707 10709 10711 10712 10714 10717 10718 10719 10722 10723 10725 10726 10726 10727 10728 10730 10732 10734 10736 10738 10740 10741 10743 10744 10746 10747 10748 10749 10751 10753 10753 10755 10757 10759
10617 10619 10621 10622 10622 10624 10625 10626 10627 10627 10628 10628 10630 10632 10634 10636 10637 10639 10641 10642 10643 10645 10646 10648 10649 10651 10652 10654 10656 10657 10660 10662 10664 10666 10668 10670 10672 10674 10675 10677 10678 10680 10682 10685 10688 10691 10693 10695 10697 10698 10700 10702 10704 10706 10708 10710 10712 10713 10714 10718 10720 10721 10722 10723 10724 10725 10726 10728 10730 10732 10734 10736 10738 10739 10740 10742 10743 10744 10745 10746 10747 10749 10751 10752 10754
10612 10613 10615 10616 10616 10618 10619 10620 10621 10621 10622 10623 10624 10626 10628 10629 10631 10633 10634 10635 10637 10638 10640 10642 10643 10645 10647 10648 10650 10652 10654 10656 10658 10660 10662 10664 10666 10668 10670 10672 10673 10674 10676 10679 10682 10685 10687 10689 10691 10693 10695 10696 10698 10701 10703 10705 10707 10708 10709 10712 10715 10716 10717 10719 10720 10721 10723 10725 10727 10729 10729 10731 10733 10734 10736 10738 10740 10741 10741 10742 10743 10745 10747 10748 10749
10606 10608 10609 10610 10610 10612 10613 10615 10615 10615 10616 10617 10618 10619 10621 10623 10624 10626 10628 10629 10630 10632 10633 10635 10637 10639 10640 10642 10644 10646 10648 10649 10651 10653 10655 10657 10660 10662 10664 10666 10668 10669 10670 10672 10675 10678 10681 10683 10686 10687 10689 10690 10692 10695 10697 10699 10701 10703 10704 10707 10709 10710 10712 10714 10715 10717 10719 10722 10723 10724 10725 10726 10728 10730 10731 10733 10736 10737 10738 10739 10740 10741 10742 10744 10745